Marathon, FL

3:29 AM EST on January 20, 2018 (GMT -0500)
Florida Keys Marathon

Weather History for KMTH - August, 2012

Change the Weather History Date:

Friday, August 3, 2012

  Actual Average Record
Temperature  
Mean Temperature 86 °F 86 °F  
Max Temperature 93 °F 91 °F 96 °F (2002)
Min Temperature 79 °F 80 °F 73 °F (1999)
Degree Days  
Heating Degree Days 0 0  
Month to date heating degree days 0 0  
Since 1 June heating degree days 0 0  
Since 1 July heating degree days 0 0  
Cooling Degree Days 21 21  
Month to date cooling degree days 66 62  
Year to date cooling degree days 3075 2819  
Since 1 June cooling degree days 1236 1276  
Growing Degree Days 36 (Base 50)    
Moisture  
Dew Point 74 °F    
Average Humidity 67    
Maximum Humidity 74    
Minimum Humidity 59    
Precipitation  
Precipitation 0.08 in 0.21 in 3.84 in (2014)
Month to date precipitation 0.08 0.60  
Year to date precipitation 30.50 22.43  
Snow  
Snow 0.00 in - - ()
Month to date snowfall 0.0  
Since 1 June snowfall 0.0  
Since 1 July snowfall 0.0  
Snow Depth 0.00 in    
Sea Level Pressure  
Sea Level Pressure 29.96 in    
Wind  
Wind Speed 5 mph (ENE)    
Max Wind Speed 20 mph    
Max Gust Speed 29 mph    
Visibility 9 miles    
Events Rain , Thunderstorm    
T = Trace of Precipitation, MM = Missing Value Source: NWS Daily Summary

Daily Weather History Graph

Daily Weather History Graph

Search for Another Location

Airport or City:

Trip Planner

Search our weather history database for the weather conditions in past years. The results will help you decide how hot, cold, wet, or windy it might be!

Date:

Astronomy

Aug. 03, 2012 Rise Set
Actual Time 6:53 AM EDT 8:06 PM EDT
Civil Twilight 6:29 AM EDT 8:31 PM EDT
Nautical Twilight 6:00 AM EDT 9:00 PM EDT
Astronomical Twilight 5:30 AM EDT 9:29 PM EDT
Moon 9:05 PM EDT (8/3) 8:17 AM EDT (8/3)
Length of Visible Light 14h 02m
Length of Day
13h 13m
Full, 97% of the Moon is Illuminated
Aug 3
Full
Aug 9
Last Quarter
Aug 17
New
Aug 24
First Quarter
Aug 31
Full

Hourly Weather History & Observations

Time (EDT) Temp. Heat Index Dew Point Humidity Pressure Visibility Wind Dir Wind Speed Gust Speed Precip Events Conditions
12:53 AM 84.9 °F 92.1 °F 73.9 °F 69% 29.98 in 10.0 mi East 3.5 mph - N/A   Clear
1:53 AM 84.9 °F 92.1 °F 73.9 °F 69% 29.96 in 10.0 mi East 4.6 mph - N/A   Partly Cloudy
2:53 AM 84.0 °F 90.2 °F 73.0 °F 69% 29.93 in 10.0 mi Calm Calm - N/A   Clear
3:53 AM 84.0 °F 91.9 °F 75.0 °F 74% 29.92 in 10.0 mi East 4.6 mph - N/A   Scattered Clouds
4:53 AM 82.9 °F 88.8 °F 73.0 °F 72% 29.92 in 10.0 mi East 3.5 mph - N/A   Clear
5:39 AM 84.2 °F 90.9 °F 73.4 °F 70% 29.93 in 10.0 mi ENE 5.8 mph - N/A   Mostly Cloudy
5:49 AM 84.2 °F 90.9 °F 73.4 °F 70% 29.93 in 10.0 mi ENE 4.6 mph - N/A   Mostly Cloudy
5:53 AM 84.9 °F 90.7 °F 72.0 °F 65% 29.93 in 10.0 mi ENE 4.6 mph - N/A   Mostly Cloudy
6:53 AM 84.0 °F 90.2 °F 73.0 °F 69% 29.94 in 10.0 mi ENE 3.5 mph - N/A   Partly Cloudy
7:53 AM 86.0 °F 93.0 °F 73.0 °F 65% 29.96 in 10.0 mi East 3.5 mph - N/A   Clear
8:53 AM 88.0 °F 96.5 °F 73.9 °F 63% 29.97 in 10.0 mi Variable 3.5 mph - N/A   Clear
9:53 AM 88.0 °F 96.5 °F 73.9 °F 63% 29.97 in 10.0 mi Calm Calm - N/A   Clear
10:53 AM 89.1 °F 98.0 °F 73.9 °F 61% 29.98 in 10.0 mi North 4.6 mph - N/A   Clear
11:53 AM 90.0 °F 100.2 °F 75.0 °F 61% 29.99 in 10.0 mi Calm Calm - N/A   Clear
12:53 PM 91.9 °F 107.3 °F 78.1 °F 64% 29.99 in 10.0 mi North 5.8 mph - N/A   Scattered Clouds
1:14 PM 87.8 °F 97.6 °F 75.2 °F 66% 29.98 in 10.0 mi North 4.6 mph - N/A Thunderstorm Thunderstorm
1:44 PM 86.0 °F 93.4 °F 73.4 °F 66% 29.97 in 10.0 mi SSE 5.8 mph - N/A   Mostly Cloudy
1:53 PM 88.0 °F 95.6 °F 73.0 °F 61% 29.97 in 10.0 mi South 3.5 mph - N/A   Mostly Cloudy
2:53 PM 91.0 °F 102.9 °F 75.9 °F 61% 29.96 in 10.0 mi North 5.8 mph - N/A   Clear
3:33 PM 93.2 °F 105.0 °F 75.2 °F 56% 29.96 in 10.0 mi North 10.4 mph - N/A Thunderstorm Clear
3:53 PM 84.0 °F 89.6 °F 72.0 °F 67% 29.97 in 4.0 mi NNW 15.0 mph 25.3 mph 0.01 in Rain , Thunderstorm Thunderstorms and Rain
4:07 PM 78.8 °F - 73.4 °F 83% 29.96 in 2.5 mi Variable 3.5 mph - 0.05 in Rain Heavy Rain
4:16 PM 82.4 °F 89.5 °F 75.2 °F 79% 29.97 in 3.0 mi NE 11.5 mph - 0.07 in Rain , Thunderstorm Light Thunderstorms and Rain
4:53 PM 82.9 °F 90.8 °F 75.9 °F 79% 29.96 in 10.0 mi ENE 10.4 mph - 0.07 in Thunderstorm Partly Cloudy
5:07 PM 82.4 °F 88.2 °F 73.4 °F 74% 29.96 in 10.0 mi East 6.9 mph - N/A   Partly Cloudy
5:53 PM 84.0 °F 91.2 °F 73.9 °F 72% 29.95 in 10.0 mi East 5.8 mph - N/A   Clear
6:53 PM 84.0 °F 91.2 °F 73.9 °F 72% 29.96 in 10.0 mi ESE 5.8 mph - N/A   Clear
7:53 PM 84.9 °F 90.1 °F 71.1 °F 63% 29.99 in 10.0 mi East 4.6 mph - N/A   Clear
8:50 PM 84.2 °F 92.3 °F 75.2 °F 74% 29.98 in 10.0 mi ENE 9.2 mph - N/A   Mostly Cloudy
8:53 PM 84.9 °F 93.3 °F 75.0 °F 72% 29.99 in 10.0 mi ENE 9.2 mph - N/A   Mostly Cloudy
9:12 PM 84.2 °F 92.3 °F 75.2 °F 74% 29.99 in 10.0 mi East 8.1 mph - N/A   Scattered Clouds
9:53 PM 84.9 °F 92.1 °F 73.9 °F 69% 29.98 in 10.0 mi ENE 8.1 mph - N/A   Clear
10:53 PM 84.9 °F 92.1 °F 73.9 °F 69% 29.99 in 10.0 mi ESE 5.8 mph - N/A   Partly Cloudy
11:53 PM 84.9 °F 92.1 °F 73.9 °F 69% 29.99 in 10.0 mi East 6.9 mph - N/A   Clear